[[{"header":{"parameterUnit":"m.s-1","parameterCategory":2,"la1":30.2991,"la2":30.254,"lo1":-89.0895,"lo2":-89.0444,"dy":0.0017,"dx":0.0017,"nx":28,"ny":28,"refTime":"2024-07-16T03:00:00:Z","depth":"0","parameterNumber":2,"parameterNumberName":"U-component_of_CURRENTS"},"data":[0,0,0,0,0,0,0,0,0,0,0,0,0,0,0,0,0,0,0,0,0,0,0,0,0,0,0,0,0,0,0,0,0,0,0,0,0,0,0,0,0,0,0,0,0,0,0,0,0,0,0,0,0,0,0,0,0,0,-0.0007,-0.0008,0,-0.0104,-0.0104,-0.0104,-0.0106,-0.0106,-0.0106,-0.0105,-0.0056,-0.0056,-0.0055,0,0,0,0,0,0,0,0,0,0,0,0,0,0.0131,0.013,-0.0006,-0.0008,-0.001,-0.0103,-0.0104,-0.0104,-0.0106,-0.0106,-0.0106,-0.0105,-0.0057,-0.0056,-0.0055,0,0,0,0,0,0,0,0,0,0,0,0,0,0.0065,0.0129,-0.0006,-0.0029,-0.0033,-0.0103,-0.0104,-0.0105,-0.0107,-0.0106,-0.0105,-0.0105,-0.0057,-0.0056,-0.0054,-0.0058,0,0,-0.005,-0.005,0,0,0,0,0,0,0,0,0.0069,0.0061,-0.0024,-0.0028,-0.0032,-0.01,-0.0038,-0.0085,-0.0107,-0.0069,-0.0105,-0.0105,-0.0064,-0.0062,-0.0071,-0.0056,-0.0054,-0.005,-0.0049,-0.0049,-0.0048,0,0,0,0,0,0,0,0.0074,0.0065,-0.0036,-0.0026,-0.0031,-0.0051,-0.0058,-0.0047,-0.0059,-0.0073,-0.0075,-0.01,-0.0063,-0.0072,-0.007,-0.0053,-0.005,-0.0049,-0.0048,-0.0047,-0.0068,-0.0069,0,0,0,0,0,0,0.0069,0.0069,-0.0033,-0.004,0.0011,-0.0054,-0.0062,-0.0072,-0.0063,-0.0064,-0.01,-0.01,-0.0075,-0.0071,-0.0068,-0.0086,-0.0049,-0.0047,-0.0047,-0.0067,-0.0068,-0.007,0,0,0,0,0,0,0.0073,0.0062,-0.0029,0.0005,-0.0009,-0.0058,-0.0068,-0.0074,-0.0093,-0.0087,-0.0084,-0.0116,-0.0074,-0.007,-0.012,-0.0083,-0.0047,-0.0045,-0.0065,-0.0067,-0.0069,-0.0113,0,0,0,0,0,0,0.0078,0.0064,0.0039,0.0005,-0.0012,-0.0106,-0.007,-0.0077,-0.0113,-0.0113,-0.0099,-0.0094,-0.0074,-0.0123,-0.0119,-0.0081,-0.0044,-0.0063,-0.0066,-0.0068,-0.011,-0.0116,-0.0122,0,0,0,0,0,0.0083,0.0045,0.0039,0.0024,-0.0038,-0.0109,-0.012,-0.0146,-0.0115,-0.0152,-0.0159,-0.0094,-0.0133,-0.0126,-0.0119,-0.008,-0.0062,-0.0065,-0.0068,-0.0107,-0.0115,-0.0122,0,0,0,0,0,0,0.009,0.0039,0.0032,-0.0019,-0.0077,-0.0114,-0.0152,-0.0154,-0.0185,-0.0168,-0.0145,-0.0145,-0.0148,-0.0138,-0.0129,-0.0096,-0.0071,-0.0074,-0.0103,-0.011,-0.0116,-0.0114,-0.0043,0,0,0,0,0,0.0078,0.0048,-0.0014,-0.0053,-0.0085,-0.0114,-0.0147,-0.0155,-0.0184,-0.0196,-0.0193,-0.0176,-0.0154,-0.0159,-0.0142,-0.0159,-0.0159,-0.0122,-0.0128,-0.0133,-0.0131,-0.0149,-0.0156,-0.008,-0.008,-0.008,0,0,0.008,0.004,0.0027,-0.0054,-0.0087,-0.0145,-0.013,-0.0177,-0.02,-0.0182,-0.0216,-0.0194,-0.0165,-0.0171,-0.0168,-0.0163,-0.0159,-0.0137,-0.0141,-0.0136,-0.0153,-0.016,-0.0167,-0.0082,-0.0082,-0.0081,0,0,0.0046,0.0023,-0.0028,-0.0081,-0.0153,-0.0171,-0.0188,-0.0235,-0.0236,-0.0274,-0.0244,-0.0244,-0.0227,-0.0215,-0.0194,-0.0233,-0.0181,-0.0195,-0.0233,-0.0251,-0.0257,-0.0263,-0.0289,-0.0296,-0.021,-0.021,-0.021,0,0.0034,-0.0024,-0.0058,-0.0132,-0.0172,-0.0183,-0.0242,-0.0253,-0.0305,-0.0306,-0.0288,-0.0261,-0.0238,-0.0233,-0.0242,-0.0238,-0.025,-0.0203,-0.0258,-0.0263,-0.0268,-0.0293,-0.0301,-0.0213,-0.0213,-0.0212,-0.0212,0,-0.005,-0.0095,-0.0129,-0.021,-0.0262,-0.0307,-0.0337,-0.0361,-0.0338,-0.0339,-0.0327,-0.0317,-0.03,-0.0276,-0.0265,-0.0272,-0.027,-0.0253,-0.0236,-0.0278,-0.0303,-0.031,-0.0216,-0.0216,-0.0215,-0.0214,0,0,-0.0072,-0.0168,-0.018,-0.0207,-0.0295,-0.0329,-0.0372,-0.0411,-0.04,-0.0413,-0.0411,-0.0376,-0.0349,-0.0329,-0.0304,-0.0324,-0.0366,-0.0308,-0.0307,-0.0328,-0.0419,-0.0346,-0.0346,-0.036,-0.0361,-0.0362,-0.0429,0,-0.013,-0.0242,-0.0281,-0.0348,-0.0398,-0.0416,-0.0441,-0.0463,-0.0454,-0.0459,-0.0423,-0.0399,-0.0372,-0.0345,-0.0365,-0.0348,-0.0384,-0.035,-0.038,-0.0381,-0.0306,-0.0351,-0.0206,-0.0247,-0.0435,-0.0437,-0.0437,0,-0.0207,-0.0266,-0.0347,-0.0379,-0.04,-0.0435,-0.0452,-0.0473,-0.0483,-0.047,-0.0465,-0.0432,-0.0442,-0.0407,-0.0433,-0.0413,-0.0425,-0.0426,-0.0428,-0.0344,-0.0319,-0.0233,-0.0252,-0.032,-0.0447,-0.0447,-0.0446,0,-0.0194,-0.0296,-0.0339,-0.0366,-0.0424,-0.0437,-0.0457,-0.0477,-0.0471,-0.0483,-0.0472,-0.0476,-0.0457,-0.0479,-0.0462,-0.0456,-0.0494,-0.0486,-0.0445,-0.0441,-0.0313,-0.0295,-0.0389,-0.0529,-0.0529,-0.0529,-0.0529,0,-0.0224,-0.0256,-0.0327,-0.0348,-0.0378,-0.0416,-0.0423,-0.0445,-0.0453,-0.0437,-0.0463,-0.0445,-0.0472,-0.0481,-0.0489,-0.0475,-0.0518,-0.0457,-0.0452,-0.0327,-0.0309,-0.0356,-0.0422,-0.0531,-0.0531,-0.053,-0.053,0,-0.0196,-0.0244,-0.0289,-0.0349,-0.0371,-0.0385,-0.0421,-0.0408,-0.0424,-0.0414,-0.0415,-0.0435,-0.0441,-0.0468,-0.0499,-0.0487,-0.0495,-0.0488,-0.034,-0.0315,-0.032,-0.0392,-0.0488,-0.0467,-0.0461,-0.0459,-0.0458,0,-0.0196,-0.0217,-0.0287,-0.0304,-0.0331,-0.0363,-0.0372,-0.0401,-0.0381,-0.0387,-0.0365,-0.0388,-0.0367,-0.0397,-0.0364,-0.0377,-0.0462,-0.029,-0.0245,-0.0308,-0.0387,-0.0453,-0.0433,-0.0113,-0.0109,-0.0105,-0.0103,0,-0.019,-0.0201,-0.0235,-0.0279,-0.03,-0.0317,-0.0329,-0.0319,-0.0316,-0.0306,-0.0277,-0.0269,-0.0254,-0.0176,-0.019,-0.0188,-0.0285,-0.0224,-0.0324,-0.0152,-0.0196,-0.0173,-0.0106,-0.0074,-0.0077,-0.0079,-0.0081,-0.0082,-0.0187,-0.019,-0.022,-0.0252,-0.0276,-0.0261,-0.0255,-0.0242,-0.0216,-0.0177,-0.0181,-0.0137,-0.0046,-0.001,-0.0022,0.0009,-0.0097,-0.0002,-0.0098,-0.0171,-0.0107,0.002,0.0086,0.0084,0.0082,0.0081,0.008,0,-0.02,-0.018,-0.0193,-0.0217,-0.022,-0.0241,-0.0211,-0.0177,-0.0136,-0.0093,-0.0058,0.0066,0.015,0.0166,0.0223,0.0153,0.0139,0.0058,-0.0009,-0.0002,0.01,0.0163,0.0294,0.0294,0.0294,0.0294,0.0294,0.0294,-0.0204,-0.0201,-0.0184,-0.017,-0.0175,-0.0149,-0.0127,-0.0086,-0.0034,0.0051,0.0125,0.0185,0.022,0.0094,0.0054,0.0069,-0.0041,-0.003,-0.0169,-0.011,-0.0124,-0.0136,-0.0092,-0.0017,-0.0018,-0.0153,-0.0155,-0.0157]},{"header":{"parameterUnit":"m.s-1","parameterCategory":2,"la1":30.2991,"la2":30.254,"lo1":-89.0895,"lo2":-89.0444,"dy":0.0017,"dx":0.0017,"nx":28,"ny":28,"refTime":"2024-07-16T03:00:00:Z","depth":"0","parameterNumber":3,"parameterNumberName":"V-component_of_CURRENTS"},"data":[0,0,0,0,0,0,0,0,0,0,0,0,0,0,0,0,0,0,0,0,0,0,0,0,0,0,0,0,0,0,0,0,0,0,0,0,0,0,0,0,0,0,0,0,0,0,0,0,0,0,0,0,0,0,0,0,0,0,0.0018,0.0018,0,0.0071,0.0072,0.0072,0.0122,0.0122,0.0123,0.0123,0.0222,0.0224,0.0226,0,0,0,0,0,0,0,0,0,0,0,0,0,0.0043,0.0042,0.0018,0.0018,0.0019,0.0071,0.0072,0.0072,0.0122,0.0122,0.0123,0.0123,0.0221,0.0224,0.0227,0,0,0,0,0,0,0,0,0,0,0,0,0,0.0059,0.0042,0.0018,0.0048,0.0052,0.0071,0.0072,0.0073,0.0121,0.0122,0.0123,0.0124,0.0221,0.0224,0.0227,0.0233,0,0,0.0237,0.0239,0,0,0,0,0,0,0,0,0.0058,0.0058,0.0043,0.0046,0.005,0.0089,0.0117,0.0128,0.0121,0.0096,0.0123,0.0124,0.018,0.0187,0.0197,0.0238,0.0242,0.0237,0.0239,0.0241,0.0242,0,0,0,0,0,0,0,0.0057,0.0057,0.004,0.0044,0.0048,0.0089,0.0091,0.012,0.0136,0.0099,0.0102,0.0105,0.0183,0.0194,0.02,0.0243,0.0237,0.024,0.0242,0.0244,0.0282,0.0281,0,0,0,0,0,0,0.0042,0.0055,0.0039,0.0042,0.0054,0.0087,0.009,0.0077,0.0135,0.0143,0.0105,0.0107,0.0188,0.0196,0.0203,0.02,0.0241,0.0244,0.0246,0.0283,0.0282,0.0281,0,0,0,0,0,0,0.0042,0.0039,0.0036,0.005,0.0052,0.0085,0.0071,0.0078,0.0093,0.0138,0.0148,0.0113,0.0188,0.0199,0.0225,0.0205,0.0245,0.0248,0.0284,0.0283,0.0282,0.0203,0,0,0,0,0,0,0.0042,0.0038,0.0029,0.0048,0.0051,0.0038,0.007,0.0078,0.0093,0.0097,0.0149,0.0158,0.019,0.022,0.0229,0.021,0.0251,0.0286,0.0284,0.0282,0.0207,0.0199,0.0193,0,0,0,0,0,0.0042,0.0024,0.0027,0.0026,0.0034,0.0037,0.0042,0.0071,0.0092,0.0089,0.0127,0.0157,0.0215,0.0222,0.0232,0.0215,0.0286,0.0284,0.0282,0.021,0.0201,0.0193,0,0,0,0,0,0,0.0029,0.0027,0.0032,0.0013,0.002,0.0045,0.0052,0.0068,0.0095,0.0104,0.0152,0.0164,0.0176,0.0207,0.0214,0.0219,0.0253,0.0252,0.0194,0.0186,0.0179,0.017,0.0254,0,0,0,0,0,0.0019,0.0006,0.0011,-0.0003,0.0001,0.0026,0.0035,0.0046,0.0071,0.0084,0.0118,0.0152,0.0173,0.019,0.0214,0.0223,0.024,0.0216,0.0209,0.0202,0.0201,0.0218,0.0212,0.0274,0.0274,0.0274,0,0,0.0018,0.0008,0.0006,-0.0006,0.0009,0.0001,0.0034,0.0037,0.0025,0.0091,0.0096,0.013,0.017,0.0175,0.0183,0.0201,0.0185,0.02,0.0194,0.0197,0.0215,0.0209,0.0204,0.0273,0.0273,0.0273,0,0,-0.0004,-0.0008,-0.0025,-0.0023,-0.0021,-0.0015,-0.0018,-0.0001,0.0004,0.0011,0.0049,0.0072,0.0111,0.0129,0.0146,0.0116,0.0146,0.012,0.008,0.0095,0.009,0.0086,0.0065,0.006,0.0117,0.0117,0.0117,0,-0.0017,-0.004,-0.0027,-0.0044,-0.0049,-0.0027,-0.0047,-0.0042,-0.0023,-0.002,0.0002,0.005,0.0087,0.009,0.008,0.0099,0.0103,0.0109,0.0086,0.0082,0.008,0.0059,0.0054,0.0113,0.0114,0.0114,0.0114,0,-0.0043,-0.0063,-0.007,-0.0093,-0.0096,-0.011,-0.0108,-0.0105,-0.0092,-0.0087,-0.0079,-0.0034,-0.0002,0.0004,0.0038,0.0029,0.0034,0.0073,0.0106,0.0069,0.0049,0.0045,0.0107,0.0109,0.011,0.0111,0,0,-0.0103,-0.0093,-0.0103,-0.0113,-0.0127,-0.0136,-0.0151,-0.0165,-0.0164,-0.0154,-0.0158,-0.0127,-0.0098,-0.0077,-0.0042,-0.0027,-0.005,0.0012,0.0015,-0.0014,-0.0046,-0.0013,-0.0013,-0.0012,-0.0012,-0.0012,-0.0065,0,-0.0143,-0.0166,-0.0166,-0.0204,-0.0213,-0.0201,-0.0216,-0.022,-0.0211,-0.0206,-0.0182,-0.0166,-0.0135,-0.011,-0.01,-0.0044,-0.0057,-0.0041,-0.0001,-0.0001,0.0032,-0.0014,0.0104,0.0071,-0.0068,-0.0068,-0.0068,0,-0.0184,-0.0201,-0.0219,-0.0244,-0.025,-0.0271,-0.0279,-0.0289,-0.0276,-0.0269,-0.0257,-0.0221,-0.0207,-0.0165,-0.0135,-0.0125,-0.0101,-0.007,-0.007,-0.0009,0.0028,0.0095,0.0071,0.0255,-0.0073,-0.0073,-0.0073,0,-0.0211,-0.0252,-0.0264,-0.0268,-0.0281,-0.0296,-0.0313,-0.0302,-0.0306,-0.0301,-0.0289,-0.0277,-0.0249,-0.0221,-0.0167,-0.0142,-0.0138,-0.009,-0.006,-0.006,0.0066,0.0079,0.0229,-0.009,-0.009,-0.009,-0.009,0,-0.0249,-0.0273,-0.0274,-0.0279,-0.0317,-0.0319,-0.0345,-0.0347,-0.0344,-0.0348,-0.0321,-0.0314,-0.0253,-0.0234,-0.0199,-0.0153,-0.0171,-0.0082,-0.0066,0.0038,0.0048,0.0236,0.0262,-0.0092,-0.0092,-0.0091,-0.0091,0,-0.0261,-0.025,-0.0276,-0.0303,-0.0316,-0.0337,-0.0372,-0.0378,-0.0373,-0.0372,-0.0368,-0.0339,-0.0327,-0.0298,-0.025,-0.0178,-0.005,-0.0134,-0.0041,-0.0011,0.0228,0.0242,0.0304,0.0399,-0.0087,-0.0087,-0.0086,0,-0.026,-0.0261,-0.0289,-0.0301,-0.0318,-0.0351,-0.0367,-0.0389,-0.0397,-0.0386,-0.0387,-0.0373,-0.038,-0.0329,-0.0221,-0.0184,-0.0075,-0.0004,0.008,0.0248,0.0276,0.0276,0.0352,0.0194,0.0197,0.0199,0.0201,0,-0.0278,-0.0271,-0.0289,-0.0306,-0.0332,-0.0359,-0.0393,-0.0408,-0.0415,-0.0421,-0.0423,-0.0424,-0.0372,-0.0258,-0.0184,-0.0113,0.0155,0.0044,0.022,0.0501,0.051,0.0609,0.0186,0.0221,0.0219,0.0217,0.0216,0.0215,-0.0291,-0.0302,-0.0302,-0.0328,-0.0345,-0.0359,-0.0384,-0.041,-0.0428,-0.043,-0.0447,-0.0441,-0.022,-0.0103,-0.0013,0.0362,0.024,0.053,0.0522,0.0498,0.0638,0.0231,0.0292,0.029,0.0289,0.0288,0.0287,0,-0.0307,-0.0314,-0.0331,-0.0349,-0.0361,-0.0365,-0.0391,-0.0399,-0.0423,-0.043,-0.0448,-0.027,-0.0008,0.0236,0.069,0.0877,0.0931,0.0971,0.1053,0.1102,0.0776,0.0847,0.1033,0.1033,0.1033,0.1032,0.1032,0.1032,-0.0314,-0.0332,-0.0341,-0.0361,-0.0366,-0.0371,-0.038,-0.0389,-0.0389,-0.0352,-0.0294,-0.0255,0.0205,0.0812,0.1316,0.1369,0.1514,0.1443,0.1474,0.133,0.1292,0.1255,0.1338,0.1623,0.1623,0.1891,0.1893,0.1895]}],[{"header":{"parameterUnit":"m.s-1","parameterCategory":2,"la1":30.2991,"la2":30.254,"lo1":-89.0895,"lo2":-89.0444,"dy":0.0017,"dx":0.0017,"nx":28,"ny":28,"refTime":"2024-07-16T03:00:00:Z","depth":"2","parameterNumber":2,"parameterNumberName":"U-component_of_CURRENTS"},"data":[0,0,0,0,0,0,0,0,0,0,0,0,0,0,0,0,0,0,0,0,0,0,0,0,0,0,0,0,0,0,0,0,0,0,0,0,0,0,0,0,0,0,0,0,0,0,0,0,0,0,0,0,0,0,0,0,0,0,-0.2087,-0.2085,0,-0.1964,-0.1964,-0.1964,-0.1883,-0.1881,-0.1879,-0.1877,-0.206,-0.2067,-0.2073,0,0,0,0,0,0,0,0,0,0,0,0,0,-0.2088,-0.2091,-0.2087,-0.2084,-0.2081,-0.1964,-0.1964,-0.1963,-0.1883,-0.1881,-0.1878,-0.1876,-0.2058,-0.2066,-0.2074,0,0,0,0,0,0,0,0,0,0,0,0,0,-0.2054,-0.2092,-0.2088,-0.2015,-0.2007,-0.1964,-0.1964,-0.1963,-0.1883,-0.188,-0.1877,-0.1875,-0.2055,-0.2065,-0.2075,-0.2196,0,0,-0.2106,-0.211,0,0,0,0,0,0,0,0,-0.2057,-0.2057,-0.2029,-0.202,-0.201,-0.1922,-0.203,-0.2051,-0.1884,-0.1947,-0.1877,-0.1873,-0.2034,-0.2046,-0.2047,-0.2205,-0.2212,-0.2107,-0.2113,-0.2117,-0.212,0,0,0,0,0,0,0,-0.2059,-0.206,-0.2054,-0.2026,-0.2014,-0.1931,-0.1927,-0.2033,-0.2027,-0.1941,-0.1931,-0.1893,-0.2033,-0.2037,-0.2052,-0.2215,-0.2106,-0.2115,-0.2121,-0.2125,-0.2409,-0.2411,0,0,0,0,0,0,-0.2056,-0.2064,-0.2058,-0.2049,-0.2009,-0.1933,-0.1928,-0.1966,-0.2018,-0.2016,-0.1896,-0.189,-0.2022,-0.204,-0.2058,-0.2133,-0.2117,-0.2126,-0.2132,-0.2408,-0.241,-0.2411,0,0,0,0,0,0,-0.2058,-0.206,-0.2063,-0.2035,-0.2028,-0.1936,-0.1979,-0.1965,-0.1907,-0.1977,-0.1984,-0.1843,-0.202,-0.2044,-0.2138,-0.2142,-0.2131,-0.214,-0.2406,-0.2408,-0.241,-0.2331,0,0,0,0,0,0,-0.206,-0.2064,-0.2014,-0.2039,-0.2029,-0.2016,-0.1979,-0.1964,-0.1885,-0.1874,-0.1938,-0.1953,-0.202,-0.2122,-0.2148,-0.2156,-0.2148,-0.2404,-0.2407,-0.241,-0.2332,-0.233,-0.2329,0,0,0,0,0,-0.2062,-0.2005,-0.2016,-0.2008,-0.1994,-0.2013,-0.2003,-0.1935,-0.1884,-0.1872,-0.1925,-0.1948,-0.2157,-0.2133,-0.2162,-0.2173,-0.2403,-0.2406,-0.2409,-0.2333,-0.2331,-0.2329,0,0,0,0,0,0,-0.1987,-0.1992,-0.2003,-0.1955,-0.1977,-0.1993,-0.19,-0.1907,-0.1931,-0.1872,-0.1986,-0.201,-0.2095,-0.2154,-0.2124,-0.2264,-0.2278,-0.2287,-0.2209,-0.2209,-0.2207,-0.2189,-0.2156,0,0,0,0,0,-0.1954,-0.1903,-0.1956,-0.191,-0.1902,-0.1906,-0.1869,-0.1846,-0.1883,-0.1879,-0.1978,-0.205,-0.2145,-0.2184,-0.2283,-0.2368,-0.2357,-0.239,-0.2389,-0.2387,-0.2394,-0.2383,-0.2379,-0.2422,-0.2422,-0.2422,0,0,-0.1928,-0.1894,-0.1879,-0.1883,-0.1867,-0.1922,-0.1878,-0.1799,-0.1874,-0.1908,-0.202,-0.2059,-0.217,-0.2263,-0.2304,-0.2302,-0.2361,-0.2391,-0.2389,-0.2397,-0.2385,-0.2381,-0.2376,-0.2425,-0.2424,-0.2424,0,0,-0.1852,-0.1816,-0.1765,-0.1786,-0.1726,-0.1793,-0.1777,-0.1819,-0.1837,-0.1949,-0.1986,-0.2019,-0.2209,-0.2266,-0.2324,-0.2379,-0.2362,-0.24,-0.2372,-0.236,-0.2355,-0.2351,-0.2277,-0.2267,-0.2388,-0.2388,-0.2388,0,-0.1797,-0.1783,-0.1755,-0.1733,-0.1732,-0.1766,-0.1788,-0.1863,-0.195,-0.1978,-0.1974,-0.2151,-0.2219,-0.2317,-0.2324,-0.2373,-0.2337,-0.236,-0.2352,-0.2348,-0.2345,-0.2271,-0.2261,-0.2385,-0.2385,-0.2386,-0.2386,0,-0.1719,-0.1721,-0.1681,-0.1726,-0.1746,-0.1729,-0.186,-0.1908,-0.1949,-0.2033,-0.2104,-0.2178,-0.2266,-0.2286,-0.233,-0.2345,-0.2313,-0.235,-0.2338,-0.2334,-0.2258,-0.2248,-0.238,-0.2381,-0.2382,-0.2383,0,0,-0.1624,-0.163,-0.1629,-0.1668,-0.1712,-0.176,-0.1866,-0.1994,-0.2043,-0.2131,-0.2194,-0.2304,-0.2265,-0.2326,-0.2342,-0.2321,-0.224,-0.2308,-0.2308,-0.2202,-0.2148,-0.2033,-0.2012,-0.2255,-0.2255,-0.2254,-0.2081,0,-0.1586,-0.1576,-0.1592,-0.1696,-0.1735,-0.1798,-0.1914,-0.2009,-0.2107,-0.2211,-0.2228,-0.2306,-0.2318,-0.2283,-0.2279,-0.2286,-0.222,-0.228,-0.2198,-0.2195,-0.2068,-0.2001,-0.1893,-0.1723,-0.2072,-0.207,-0.2069,0,-0.1519,-0.1532,-0.1561,-0.1685,-0.1697,-0.1767,-0.1887,-0.1991,-0.2124,-0.2148,-0.219,-0.2259,-0.2279,-0.2258,-0.2229,-0.2258,-0.2184,-0.2156,-0.2149,-0.2071,-0.2065,-0.1801,-0.1693,-0.2053,-0.2054,-0.2056,-0.2057,0,-0.1463,-0.1546,-0.1564,-0.1594,-0.1722,-0.1722,-0.1804,-0.1923,-0.1991,-0.2086,-0.2107,-0.218,-0.2177,-0.2151,-0.2133,-0.2162,-0.2057,-0.2103,-0.1913,-0.1903,-0.1814,-0.1796,-0.2015,-0.2015,-0.2016,-0.2016,-0.2017,0,-0.1432,-0.1471,-0.1527,-0.1539,-0.1578,-0.1653,-0.168,-0.177,-0.1848,-0.192,-0.2039,-0.2074,-0.2146,-0.2147,-0.2103,-0.197,-0.2028,-0.1879,-0.1851,-0.1778,-0.1761,-0.2081,-0.2091,-0.201,-0.2011,-0.2012,-0.2013,0,-0.1381,-0.141,-0.1444,-0.1517,-0.1533,-0.1545,-0.1603,-0.1645,-0.1706,-0.1792,-0.1811,-0.1977,-0.1961,-0.1998,-0.1941,-0.1899,-0.1802,-0.1715,-0.1593,-0.1554,-0.1653,-0.1662,-0.1499,-0.1493,-0.1489,-0.1485,-0.1482,0,-0.133,-0.1319,-0.1379,-0.1383,-0.1397,-0.1415,-0.1417,-0.1522,-0.1592,-0.1731,-0.1785,-0.1823,-0.1836,-0.1718,-0.1645,-0.1502,-0.1614,-0.131,-0.1365,-0.161,-0.1601,-0.1617,-0.1632,-0.1191,-0.1186,-0.1182,-0.1178,0,-0.1242,-0.1231,-0.1267,-0.1251,-0.1254,-0.1318,-0.136,-0.1416,-0.1548,-0.1605,-0.1693,-0.1695,-0.1596,-0.1468,-0.1295,-0.1196,-0.1348,-0.1213,-0.1498,-0.1349,-0.1309,-0.1305,-0.1331,-0.1139,-0.1143,-0.1146,-0.1148,-0.1149,-0.1114,-0.113,-0.113,-0.1117,-0.1138,-0.1222,-0.1258,-0.1342,-0.1417,-0.1518,-0.1557,-0.1482,-0.1433,-0.1137,-0.0997,-0.0889,-0.0999,-0.0975,-0.0994,-0.1016,-0.1021,-0.0977,-0.0741,-0.0743,-0.0744,-0.0745,-0.0746,0,-0.1022,-0.1034,-0.1006,-0.1052,-0.1062,-0.1085,-0.1218,-0.1269,-0.133,-0.1328,-0.1311,-0.1126,-0.0979,-0.0918,-0.0702,-0.0601,-0.0611,-0.0554,-0.0646,-0.0683,-0.0717,-0.0714,-0.0349,-0.0347,-0.0346,-0.0345,0,0,-0.0986,-0.0965,-0.0968,-0.0943,-0.0945,-0.0986,-0.1041,-0.1135,-0.1157,-0.1074,-0.0982,-0.097,-0.0932,-0.0715,-0.0596,-0.0473,-0.0562,-0.0387,-0.0708,-0.0858,-0.0891,-0.0955,-0.099,0,0,0,0,0]},{"header":{"parameterUnit":"m.s-1","parameterCategory":2,"la1":30.2991,"la2":30.254,"lo1":-89.0895,"lo2":-89.0444,"dy":0.0017,"dx":0.0017,"nx":28,"ny":28,"refTime":"2024-07-16T03:00:00:Z","depth":"2","parameterNumber":3,"parameterNumberName":"V-component_of_CURRENTS"},"data":[0,0,0,0,0,0,0,0,0,0,0,0,0,0,0,0,0,0,0,0,0,0,0,0,0,0,0,0,0,0,0,0,0,0,0,0,0,0,0,0,0,0,0,0,0,0,0,0,0,0,0,0,0,0,0,0,0,0,-0.0028,-0.0026,0,0.0142,0.0145,0.0147,0.0174,0.0172,0.017,0.0169,0.0396,0.0404,0.0411,0,0,0,0,0,0,0,0,0,0,0,0,0,-0.0122,-0.0121,-0.0028,-0.0026,-0.0024,0.0142,0.0145,0.0147,0.0174,0.0172,0.017,0.0168,0.0394,0.0403,0.0412,0,0,0,0,0,0,0,0,0,0,0,0,0,-0.0027,-0.0121,-0.0028,0.0007,0.0011,0.0142,0.0145,0.0148,0.0175,0.0172,0.0169,0.0167,0.0391,0.0402,0.0413,0.0539,0,0,0.0449,0.0454,0,0,0,0,0,0,0,0,-0.0032,-0.0023,-0.0,0.0004,0.001,0.0131,0.0195,0.0281,0.0175,0.0116,0.0168,0.0165,0.0313,0.0331,0.0372,0.055,0.0559,0.045,0.0457,0.0462,0.0465,0,0,0,0,0,0,0,-0.0039,-0.0029,0.0043,0.0002,0.0008,0.0085,0.0094,0.0212,0.0231,0.0121,0.0123,0.0137,0.0316,0.0361,0.0378,0.0563,0.0449,0.046,0.0467,0.0471,0.0811,0.0813,0,0,0,0,0,0,-0.0075,-0.0036,0.0037,0.0047,-0.0022,0.0088,0.0098,0.0098,0.0229,0.0245,0.0139,0.0138,0.0343,0.0364,0.0386,0.0444,0.0462,0.0473,0.0479,0.0809,0.0812,0.0814,0,0,0,0,0,0,-0.0077,-0.007,0.003,0.0008,0.0025,0.009,0.0091,0.0102,0.0113,0.0241,0.0258,0.0132,0.0341,0.037,0.0449,0.0456,0.0478,0.0488,0.0807,0.081,0.0813,0.0624,0,0,0,0,0,0,-0.0081,-0.0073,-0.0091,0.0005,0.0025,0.007,0.0094,0.0108,0.0126,0.0125,0.0243,0.0263,0.0341,0.0431,0.046,0.0473,0.0497,0.0804,0.0808,0.0812,0.0627,0.062,0.0614,0,0,0,0,0,-0.0085,-0.0106,-0.0093,-0.0084,-0.0001,0.007,0.0087,0.0129,0.0128,0.0129,0.0199,0.0257,0.0478,0.0441,0.0475,0.0491,0.0802,0.0807,0.0811,0.063,0.0621,0.0614,0,0,0,0,0,0,-0.0156,-0.0102,-0.0087,-0.0092,-0.0033,0.0071,0.0077,0.0112,0.0174,0.0161,0.0273,0.03,0.0374,0.0475,0.0432,0.061,0.0657,0.0668,0.0508,0.0501,0.0494,0.0468,0.0507,0,0,0,0,0,-0.0179,-0.0188,-0.011,-0.0116,-0.0094,-0.0011,0.0019,0.0048,0.0119,0.0141,0.0231,0.0338,0.0436,0.0489,0.0595,0.0692,0.0753,0.0737,0.0729,0.0722,0.0731,0.0843,0.0845,0.0829,0.0829,0.0829,0,0,-0.0202,-0.018,-0.0181,-0.0132,-0.0083,-0.0045,-0.0001,0.0027,0.0065,0.0163,0.0232,0.031,0.0455,0.0543,0.0591,0.0618,0.0744,0.0728,0.072,0.0734,0.0848,0.0849,0.085,0.0832,0.0832,0.0831,0,0,-0.0238,-0.024,-0.0245,-0.0209,-0.0157,-0.0099,-0.0103,-0.001,0.0027,0.0098,0.0182,0.0261,0.0414,0.0522,0.0595,0.0633,0.0695,0.0666,0.0617,0.0723,0.0724,0.0726,0.0714,0.0717,0.0671,0.0671,0.0671,0,-0.027,-0.0273,-0.0233,-0.0222,-0.0206,-0.0133,-0.0123,-0.0051,0.0056,0.0102,0.0089,0.032,0.0415,0.0559,0.0545,0.0615,0.0636,0.0614,0.0706,0.071,0.0715,0.0705,0.0709,0.0662,0.0663,0.0664,0.0665,0,-0.0291,-0.03,-0.0303,-0.0272,-0.0242,-0.0233,-0.014,-0.0101,-0.0063,0.0026,0.014,0.0265,0.0397,0.0445,0.0488,0.0595,0.0577,0.0663,0.0701,0.0704,0.0693,0.0701,0.065,0.0653,0.0656,0.0658,0,0,-0.035,-0.0324,-0.0326,-0.0333,-0.0283,-0.0258,-0.0206,-0.0116,-0.0071,0.0029,0.0116,0.0253,0.0306,0.0395,0.0488,0.0574,0.0573,0.0598,0.0608,0.0538,0.07,0.0667,0.0673,0.0652,0.0655,0.0657,0.0642,0,-0.0382,-0.0385,-0.0361,-0.0368,-0.0368,-0.0315,-0.0268,-0.0181,-0.0096,0.0016,0.0165,0.0271,0.0302,0.033,0.0424,0.0575,0.0601,0.0563,0.0755,0.0759,0.0692,0.0687,0.0716,0.0707,0.0651,0.0652,0.0653,0,-0.0408,-0.0418,-0.0427,-0.0433,-0.0429,-0.0415,-0.0358,-0.0311,-0.0133,-0.0072,0.0058,0.0184,0.0334,0.0351,0.0555,0.0514,0.0561,0.0655,0.0659,0.0714,0.0747,0.0724,0.0725,0.0669,0.0667,0.0666,0.0665,0,-0.0466,-0.0471,-0.049,-0.0491,-0.0464,-0.0468,-0.0459,-0.0335,-0.0281,-0.0124,-0.0064,0.0141,0.0244,0.0378,0.0511,0.0528,0.0711,0.0789,0.0789,0.0783,0.0897,0.0897,0.0888,0.0888,0.0888,0.0888,0.0888,0,-0.0518,-0.0538,-0.0523,-0.054,-0.0572,-0.0545,-0.0535,-0.049,-0.0371,-0.0278,-0.0127,-0.0001,0.0253,0.0398,0.0498,0.0643,0.069,0.0767,0.0803,0.0822,0.0817,0.0892,0.0892,0.0887,0.0888,0.0888,0.0888,0,-0.0565,-0.0553,-0.059,-0.0595,-0.0597,-0.0632,-0.0617,-0.0584,-0.0504,-0.0377,-0.034,-0.0088,0.0088,0.0276,0.0517,0.0623,0.0768,0.0778,0.0711,0.0741,0.0757,0.0749,0.0827,0.0826,0.0825,0.0825,0.0824,0,-0.0581,-0.0598,-0.0634,-0.0652,-0.066,-0.0693,-0.0693,-0.0655,-0.0599,-0.0416,-0.0335,-0.0144,0.004,0.0327,0.0585,0.0745,0.0695,0.0773,0.086,0.0737,0.0764,0.0756,0.0749,0.0892,0.0892,0.0892,0.0892,0,-0.0627,-0.0638,-0.0667,-0.0691,-0.0715,-0.0744,-0.074,-0.0712,-0.0628,-0.0502,-0.0303,-0.0153,0.0162,0.0459,0.0628,0.0713,0.0771,0.0781,0.0736,0.0898,0.0799,0.0824,0.0816,0.0894,0.0893,0.0893,0.0893,0.0893,-0.0653,-0.0689,-0.0706,-0.0727,-0.075,-0.076,-0.0765,-0.0702,-0.0613,-0.0419,-0.0296,-0.0021,0.0221,0.0609,0.0673,0.0775,0.0856,0.0852,0.0853,0.0854,0.0859,0.0766,0.0847,0.0847,0.0846,0.0846,0.0846,0,-0.0686,-0.0703,-0.0725,-0.076,-0.0771,-0.0775,-0.075,-0.07,-0.0566,-0.0396,-0.0222,0.0081,0.037,0.055,0.0826,0.0917,0.0909,0.0785,0.081,0.0813,0.0814,0.0817,0.0794,0.0792,0.0791,0.079,0,0,-0.0706,-0.0736,-0.0742,-0.0756,-0.0761,-0.0756,-0.0735,-0.0627,-0.0492,-0.0303,-0.0079,0.0153,0.0474,0.0586,0.0681,0.0764,0.0705,0.0695,0.0753,0.0774,0.077,0.0899,0.0913,0,0,0,0,0]}],[{"header":{"parameterUnit":"m.s-1","parameterCategory":2,"la1":30.2991,"la2":30.254,"lo1":-89.0895,"lo2":-89.0444,"dy":0.0017,"dx":0.0017,"nx":28,"ny":28,"refTime":"2024-07-16T03:00:00:Z","depth":"4","parameterNumber":2,"parameterNumberName":"U-component_of_CURRENTS"},"data":[0,0,0,0,0,0,0,0,0,0,0,0,0,0,0,0,0,0,0,0,0,0,0,0,0,0,0,0,0,0,0,0,0,0,0,0,0,0,0,0,0,0,0,0,0,0,0,0,0,0,0,0,0,0,0,0,0,0,-0.1031,-0.1031,0,-0.1054,-0.1054,-0.1055,-0.1105,-0.1105,-0.1106,-0.1106,-0.1285,-0.129,-0.1294,0,0,0,0,0,0,0,0,0,0,0,0,0,-0.098,-0.0982,-0.1031,-0.1031,-0.1031,-0.1054,-0.1054,-0.1055,-0.1105,-0.1105,-0.1106,-0.1107,-0.1284,-0.1289,-0.1294,0,0,0,0,0,0,0,0,0,0,0,0,0,-0.1007,-0.0982,-0.1031,-0.1055,-0.1057,-0.1054,-0.1055,-0.1055,-0.1104,-0.1105,-0.1106,-0.1107,-0.1282,-0.1289,-0.1295,-0.1316,0,0,-0.1314,-0.1317,0,0,0,0,0,0,0,0,-0.1005,-0.1009,-0.1051,-0.1053,-0.1055,-0.1073,-0.1102,-0.1149,-0.1104,-0.1091,-0.1106,-0.1108,-0.1226,-0.1236,-0.1243,-0.1324,-0.1332,-0.1315,-0.1318,-0.1321,-0.1323,0,0,0,0,0,0,0,-0.1004,-0.1008,-0.1045,-0.1051,-0.1053,-0.1047,-0.1053,-0.111,-0.1159,-0.1092,-0.1095,-0.109,-0.1228,-0.1237,-0.1248,-0.1334,-0.1314,-0.132,-0.1324,-0.1326,-0.1529,-0.153,0,0,0,0,0,0,-0.0994,-0.1007,-0.1044,-0.1045,-0.1027,-0.1047,-0.1054,-0.107,-0.1155,-0.1167,-0.1089,-0.1092,-0.1225,-0.124,-0.1255,-0.14,-0.1321,-0.1327,-0.1331,-0.1527,-0.1529,-0.1531,0,0,0,0,0,0,-0.0993,-0.0998,-0.1043,-0.1021,-0.1026,-0.1047,-0.1065,-0.107,-0.1105,-0.115,-0.1166,-0.1121,-0.1227,-0.1246,-0.1277,-0.1403,-0.133,-0.1336,-0.1525,-0.1528,-0.153,-0.1617,0,0,0,0,0,0,-0.0992,-0.0998,-0.1021,-0.1021,-0.1027,-0.1058,-0.1064,-0.107,-0.1097,-0.1102,-0.1183,-0.1198,-0.1229,-0.1266,-0.1283,-0.141,-0.1341,-0.1523,-0.1527,-0.1529,-0.1613,-0.1623,-0.1631,0,0,0,0,0,-0.099,-0.0996,-0.1022,-0.1027,-0.1054,-0.1058,-0.1062,-0.1081,-0.1098,-0.1117,-0.1132,-0.1197,-0.1301,-0.127,-0.129,-0.1423,-0.1522,-0.1526,-0.1529,-0.1608,-0.1621,-0.1631,0,0,0,0,0,0,-0.0983,-0.1002,-0.103,-0.1045,-0.1065,-0.1066,-0.1071,-0.1095,-0.1123,-0.1134,-0.1179,-0.1194,-0.1298,-0.1311,-0.1277,-0.1484,-0.1441,-0.1448,-0.1495,-0.1506,-0.1516,-0.1495,-0.1346,0,0,0,0,0,-0.0994,-0.1014,-0.103,-0.105,-0.1051,-0.1073,-0.1082,-0.1105,-0.1118,-0.1134,-0.1196,-0.1255,-0.1324,-0.1365,-0.1429,-0.1507,-0.1465,-0.1613,-0.1623,-0.1631,-0.1624,-0.1627,-0.1635,-0.1543,-0.1543,-0.1543,0,0,-0.0991,-0.1011,-0.102,-0.1052,-0.1062,-0.1082,-0.1083,-0.1102,-0.1142,-0.1151,-0.1232,-0.1296,-0.1348,-0.1449,-0.1502,-0.1478,-0.1628,-0.1635,-0.1642,-0.1631,-0.1631,-0.164,-0.1648,-0.1545,-0.1545,-0.1544,0,0,-0.0984,-0.1018,-0.1027,-0.1047,-0.1075,-0.1097,-0.111,-0.1147,-0.1183,-0.1247,-0.1285,-0.1361,-0.1484,-0.1531,-0.157,-0.1652,-0.1681,-0.1743,-0.1781,-0.1785,-0.1792,-0.1798,-0.1723,-0.1722,-0.1745,-0.1745,-0.1745,0,-0.0992,-0.1011,-0.103,-0.1046,-0.1055,-0.1108,-0.1118,-0.1167,-0.1226,-0.1261,-0.1287,-0.1448,-0.1514,-0.1603,-0.1666,-0.1682,-0.1667,-0.1741,-0.1797,-0.1802,-0.1807,-0.1728,-0.1726,-0.1749,-0.1749,-0.1748,-0.1748,0,-0.0984,-0.1014,-0.1012,-0.1066,-0.1082,-0.11,-0.1152,-0.1217,-0.1287,-0.1349,-0.1466,-0.1519,-0.1602,-0.1691,-0.1722,-0.1831,-0.18,-0.1812,-0.1767,-0.1821,-0.1735,-0.1731,-0.1756,-0.1754,-0.1753,-0.1752,0,0,-0.0966,-0.1003,-0.1011,-0.1033,-0.1091,-0.1104,-0.1174,-0.1246,-0.1296,-0.1419,-0.1471,-0.1639,-0.1689,-0.173,-0.1795,-0.184,-0.1878,-0.1875,-0.1873,-0.1795,-0.1852,-0.1738,-0.1721,-0.1931,-0.1932,-0.1932,-0.1765,0,-0.0963,-0.097,-0.1008,-0.1051,-0.1041,-0.1119,-0.1179,-0.1265,-0.1341,-0.1423,-0.1517,-0.1624,-0.1696,-0.1766,-0.1813,-0.1872,-0.1879,-0.1919,-0.1814,-0.1808,-0.1699,-0.1717,-0.1935,-0.1761,-0.176,-0.176,-0.1759,0,-0.0941,-0.0943,-0.0959,-0.1017,-0.1027,-0.11,-0.1176,-0.1233,-0.1353,-0.1428,-0.152,-0.1598,-0.1696,-0.1749,-0.1796,-0.1834,-0.1855,-0.1881,-0.1874,-0.1734,-0.1689,-0.1704,-0.175,-0.1751,-0.1752,-0.1752,-0.1753,0,-0.088,-0.0918,-0.0931,-0.095,-0.1031,-0.1092,-0.1152,-0.125,-0.1299,-0.1432,-0.148,-0.1581,-0.1634,-0.1684,-0.1752,-0.1797,-0.1769,-0.1799,-0.1679,-0.1666,-0.1779,-0.1775,-0.1811,-0.1811,-0.1811,-0.1812,-0.1812,0,-0.0856,-0.0871,-0.0921,-0.0948,-0.0979,-0.1047,-0.1121,-0.1204,-0.1304,-0.1336,-0.1475,-0.1483,-0.1648,-0.1653,-0.1703,-0.1647,-0.1697,-0.1666,-0.1629,-0.1814,-0.1816,-0.1773,-0.1771,-0.1805,-0.1807,-0.1808,-0.1809,0,-0.0809,-0.0843,-0.087,-0.0951,-0.0964,-0.0998,-0.1104,-0.1143,-0.1256,-0.1275,-0.1331,-0.1439,-0.1445,-0.1519,-0.1576,-0.1552,-0.1537,-0.1508,-0.1636,-0.1611,-0.143,-0.1434,-0.1319,-0.1314,-0.131,-0.1306,-0.1303,0,-0.079,-0.079,-0.0853,-0.0857,-0.0919,-0.0963,-0.0984,-0.1116,-0.1129,-0.1199,-0.1177,-0.1247,-0.1295,-0.1215,-0.1342,-0.1345,-0.1381,-0.1331,-0.1459,-0.141,-0.1386,-0.1397,-0.1407,-0.1296,-0.1295,-0.1294,-0.1293,0,-0.0742,-0.0791,-0.0817,-0.0801,-0.084,-0.0836,-0.0867,-0.0885,-0.0981,-0.1074,-0.1025,-0.106,-0.104,-0.1107,-0.1138,-0.1155,-0.1347,-0.1286,-0.1297,-0.1417,-0.1381,-0.1363,-0.1378,-0.1278,-0.128,-0.1281,-0.1282,0,-0.0715,-0.071,-0.0742,-0.0738,-0.0733,-0.0692,-0.0743,-0.0736,-0.0776,-0.0861,-0.0817,-0.0882,-0.097,-0.0999,-0.1003,-0.1035,-0.1057,-0.1059,-0.1082,-0.11,-0.1128,-0.1057,-0.0802,0,0,0,0,0,-0.0654,-0.0642,-0.0644,-0.0625,-0.0616,-0.0604,-0.0631,-0.0686,-0.0755,-0.0684,-0.0766,-0.0746,-0.0791,-0.0835,-0.0837,-0.0939,-0.1076,-0.0937,-0.1093,-0.1194,-0.1212,-0.1279,0,0,0,0,0,0,-0.0614,-0.0612,-0.0621,-0.0521,-0.0473,-0.0436,-0.0455,-0.051,-0.0483,-0.057,-0.0601,-0.0672,-0.0738,-0.0764,-0.0804,-0.0825,-0.0905,-0.0998,-0.0995,-0.1184,-0.12,-0.1214,-0.1289,0,0,0,0,0]},{"header":{"parameterUnit":"m.s-1","parameterCategory":2,"la1":30.2991,"la2":30.254,"lo1":-89.0895,"lo2":-89.0444,"dy":0.0017,"dx":0.0017,"nx":28,"ny":28,"refTime":"2024-07-16T03:00:00:Z","depth":"4","parameterNumber":3,"parameterNumberName":"V-component_of_CURRENTS"},"data":[0,0,0,0,0,0,0,0,0,0,0,0,0,0,0,0,0,0,0,0,0,0,0,0,0,0,0,0,0,0,0,0,0,0,0,0,0,0,0,0,0,0,0,0,0,0,0,0,0,0,0,0,0,0,0,0,0,0,-0.0275,-0.0274,0,-0.0294,-0.0294,-0.0295,-0.0263,-0.0262,-0.026,-0.0259,-0.017,-0.0169,-0.0168,0,0,0,0,0,0,0,0,0,0,0,0,0,-0.0207,-0.0209,-0.0275,-0.0274,-0.0274,-0.0293,-0.0294,-0.0295,-0.0264,-0.0262,-0.026,-0.0258,-0.017,-0.0169,-0.0168,0,0,0,0,0,0,0,0,0,0,0,0,0,-0.0236,-0.0209,-0.0275,-0.0258,-0.0256,-0.0293,-0.0294,-0.0295,-0.0264,-0.0262,-0.026,-0.0258,-0.017,-0.0169,-0.0167,-0.0202,0,0,-0.0163,-0.0162,0,0,0,0,0,0,0,0,-0.0235,-0.0239,-0.026,-0.0259,-0.0257,-0.027,-0.0237,-0.0257,-0.0265,-0.0266,-0.0259,-0.0257,-0.0192,-0.0189,-0.0205,-0.0198,-0.0194,-0.0163,-0.0162,-0.0161,-0.0161,0,0,0,0,0,0,0,-0.0233,-0.0238,-0.0286,-0.026,-0.0258,-0.0247,-0.025,-0.0242,-0.0242,-0.0265,-0.0262,-0.0258,-0.0191,-0.0207,-0.0202,-0.0192,-0.0163,-0.0161,-0.016,-0.016,-0.0181,-0.0183,0,0,0,0,0,0,-0.0225,-0.0237,-0.0286,-0.0286,-0.0235,-0.025,-0.0253,-0.0272,-0.0244,-0.0238,-0.026,-0.0256,-0.021,-0.0204,-0.0198,-0.0206,-0.0161,-0.016,-0.0159,-0.018,-0.0182,-0.0183,0,0,0,0,0,0,-0.0224,-0.023,-0.0285,-0.0257,-0.0262,-0.0253,-0.0275,-0.0273,-0.0287,-0.0241,-0.0232,-0.0274,-0.0208,-0.0201,-0.022,-0.0203,-0.0159,-0.0158,-0.0178,-0.018,-0.0182,-0.0241,0,0,0,0,0,0,-0.0222,-0.023,-0.0248,-0.0257,-0.0263,-0.0309,-0.0276,-0.0275,-0.0285,-0.0281,-0.025,-0.024,-0.0206,-0.0224,-0.0219,-0.02,-0.0156,-0.0176,-0.0179,-0.0182,-0.0237,-0.0245,-0.0251,0,0,0,0,0,-0.022,-0.0251,-0.025,-0.0255,-0.0287,-0.031,-0.0314,-0.0301,-0.0288,-0.0305,-0.0302,-0.0241,-0.0236,-0.0226,-0.0219,-0.0199,-0.0175,-0.0178,-0.0181,-0.0234,-0.0243,-0.0251,0,0,0,0,0,0,-0.0233,-0.0251,-0.0249,-0.0284,-0.0296,-0.0303,-0.032,-0.0313,-0.0329,-0.0323,-0.0283,-0.0275,-0.0276,-0.025,-0.0239,-0.0216,-0.0185,-0.0188,-0.0227,-0.0236,-0.0243,-0.0237,-0.0155,0,0,0,0,0,-0.0245,-0.0272,-0.0283,-0.0311,-0.0323,-0.0327,-0.0336,-0.0329,-0.0337,-0.0341,-0.0324,-0.0305,-0.029,-0.0275,-0.0263,-0.0268,-0.0205,-0.0246,-0.0253,-0.0259,-0.0254,-0.0195,-0.0195,-0.0194,-0.0194,-0.0194,0,0,-0.0258,-0.027,-0.0286,-0.0315,-0.0328,-0.0357,-0.0329,-0.0349,-0.0364,-0.0329,-0.0356,-0.0336,-0.0302,-0.0303,-0.0297,-0.0275,-0.0221,-0.0264,-0.0269,-0.0259,-0.0198,-0.0198,-0.0197,-0.0196,-0.0196,-0.0196,0,0,-0.0289,-0.0313,-0.0341,-0.036,-0.0375,-0.0382,-0.0391,-0.0407,-0.0406,-0.0436,-0.0404,-0.0403,-0.0382,-0.036,-0.0342,-0.0391,-0.0269,-0.0356,-0.0376,-0.032,-0.0318,-0.0316,-0.0203,-0.0191,-0.035,-0.0351,-0.0351,0,-0.0299,-0.0342,-0.0352,-0.0384,-0.0407,-0.0398,-0.0437,-0.0442,-0.0459,-0.0467,-0.0447,-0.0441,-0.0412,-0.0406,-0.0404,-0.0403,-0.032,-0.0342,-0.0326,-0.0323,-0.032,-0.0205,-0.019,-0.0354,-0.0353,-0.0353,-0.0353,0,-0.0346,-0.0385,-0.0408,-0.0448,-0.0477,-0.0509,-0.0518,-0.0533,-0.053,-0.0532,-0.0538,-0.0518,-0.0514,-0.0484,-0.0449,-0.041,-0.0339,-0.0346,-0.0297,-0.0323,-0.02,-0.0184,-0.0358,-0.0357,-0.0356,-0.0356,0,0,-0.0355,-0.0426,-0.0434,-0.0467,-0.0516,-0.0541,-0.0574,-0.0603,-0.0622,-0.0615,-0.0634,-0.0605,-0.0591,-0.057,-0.0525,-0.0451,-0.0347,-0.0371,-0.0366,-0.0245,-0.015,-0.0139,-0.0118,-0.0329,-0.0327,-0.0326,-0.0059,0,-0.0387,-0.0447,-0.0488,-0.0561,-0.0597,-0.0622,-0.0663,-0.0683,-0.0687,-0.0701,-0.0663,-0.0668,-0.0624,-0.0609,-0.0541,-0.041,-0.031,-0.0414,-0.0155,-0.0146,-0.0123,-0.0104,-0.0322,-0.0047,-0.0043,-0.004,-0.0038,0,-0.0423,-0.0455,-0.0532,-0.0615,-0.064,-0.0689,-0.0749,-0.0781,-0.0793,-0.0794,-0.0791,-0.076,-0.0691,-0.064,-0.0429,-0.0483,-0.0315,-0.0191,-0.0179,-0.0138,-0.0107,-0.0025,-0.0008,-0.001,-0.0012,-0.0014,-0.0016,0,-0.0411,-0.0494,-0.0557,-0.0587,-0.0676,-0.0721,-0.0765,-0.0809,-0.0836,-0.0846,-0.0852,-0.0798,-0.0741,-0.0576,-0.0343,-0.0369,-0.0054,-0.0084,0.0096,0.0102,0.004,0.0035,0.01,0.0099,0.0099,0.0098,0.0097,0,-0.0436,-0.0487,-0.0556,-0.0592,-0.0667,-0.0734,-0.0818,-0.0843,-0.0886,-0.0905,-0.0903,-0.0871,-0.0708,-0.0529,-0.0333,-0.0059,-0.0059,0.0114,0.0162,0.0013,0.0001,0.0056,0.0047,0.0108,0.0106,0.0104,0.0102,0,-0.044,-0.0484,-0.0557,-0.0644,-0.0671,-0.0729,-0.0838,-0.0884,-0.0927,-0.0938,-0.0937,-0.0876,-0.0653,-0.0447,-0.0132,-0.0035,0.0214,0.0331,0.0217,0.0251,0.0338,0.0323,0.0515,0.0518,0.052,0.0521,0.0523,0,-0.0455,-0.0488,-0.0576,-0.0614,-0.0667,-0.0752,-0.081,-0.0886,-0.0908,-0.0921,-0.0894,-0.0732,-0.065,-0.0209,-0.0016,0.0342,0.0388,0.0496,0.0355,0.035,0.0377,0.0359,0.0341,0.0526,0.0527,0.0527,0.0528,0,-0.0473,-0.0509,-0.0562,-0.0619,-0.0688,-0.0761,-0.0822,-0.0835,-0.0893,-0.0927,-0.0824,-0.068,-0.0417,-0.0165,0.0137,0.0376,0.0377,0.0517,0.0512,0.0381,0.0365,0.0386,0.0367,0.0535,0.0534,0.0533,0.0533,0,-0.0487,-0.0519,-0.0571,-0.0628,-0.07,-0.074,-0.0787,-0.0788,-0.0814,-0.0806,-0.0748,-0.0562,-0.0447,-0.0135,0.0131,0.0362,0.038,0.0386,0.0388,0.0383,0.0226,0.0178,0.0352,0,0,0,0,0,-0.0484,-0.0511,-0.0567,-0.063,-0.0699,-0.0729,-0.0778,-0.0814,-0.0838,-0.0749,-0.0751,-0.0513,-0.0211,-0.01,0.0147,0.0164,0.0423,0.0448,0.0433,0.0574,0.0566,0.04,0,0,0,0,0,0,-0.0489,-0.0531,-0.0555,-0.061,-0.0649,-0.0717,-0.0747,-0.0764,-0.0701,-0.0703,-0.0512,-0.0491,-0.0151,-0.0316,0.0147,0.0205,0.0212,0.0587,0.059,0.0579,0.0572,0.0565,0.0391,0,0,0,0,0]}]]